Погода в Юрочкином

Россия / Вологодская область     59°03′33″N   38°32′05″E
темп.,
°C
ветер,
м/с
пор.,
м/с
влажн.,
%
обл.,
%
осадки,
мм/ч
давл.,
гПа
погр.,
м
28 февраля, вс
вс2800:00−9с129780 0.2 101421
03:00−11ссз129782 0.3 101521
06:00−8сз119790 0.1 101321
09:00−7з119782 0.1 101421
12:00−3ссз129496 0.0 1014308
15:00−2сз239197 0.1 1015484
18:00−4с1394100 0.1 101799
21:00−4ссз2393100 0.1 1019117
1 марта, пн
пн100:00−5св0093100 0.0 102021
03:00−6юз269798 0.1 1020143
06:00−7юз379796 0.1 1019197
09:00−3зюз4109596 0.2 1017449
12:000зюз51095100 0.1 1015763
15:00+1з51197100 0.2 1013605
18:00+1з61398100 0.3 1009724
21:00+1з61398100 0.7 1008840
2 марта, вт
вт200:00+1з51298100 0.3 1006754
03:000зсз61297100 1.1 10051026
06:00−1зсз5118899 0.2 1005963
09:00−1зсз5119198 0.3 1005886
12:00−1зсз5990100 0.1 1005820
15:00−1зсз5988100 0.1 1005897
18:00−1сз41093100 0.1 1006790
21:00−2зсз41095100 0.5 1007618
3 марта, ср
ср300:00−3сз41196100 0.4 1009765
03:00−7сз51293100 0.5 1011522
06:00−8сз41194100 0.1 1012511
09:00−9зсз4109494 0.1 1013381
12:00−4з499550 0.0 1012467
15:00−2з5109472 0.1 1010775
18:00−3з51094100 0.1 1008883
21:00−2з41093100 0.3 1006877
4 марта, чт
чт400:00−2юз51096100 0.3 1001616
03:00−1зюз61496100 2.1 9961055
06:000зюз61496100 1.9 9921140
09:00−1з71394100 3.3 9891202
12:00−3з71387100 0.3 9881340
15:00−4зсз61291100 0.9 9921104
18:00−6сз71386100 0.4 9961006
21:00−9сз41291100 0.4 999578